Lapse_Rate
7.4 7.1 6.8 6.8 6.8 6.8 5.8 5.2 6.5 4.0 5.6 6.7 7.0 6.5 6.5 6.7 6.7 7.2 6.7 6.6 6.5 6.5 6.5 6.5 6.5 6.5 6.5 7.1 6.9 6.5 6.5 6.5 6.5 6.5 6.5 6.5 6.5 6.5 6.5 6.5 6.5 6.5 6.5 6.5
6.9 6.6 6.8 6.4 6.5 6.4 5.7 5.9 6.5 5.2 5.9 6.5 6.5 6.6 6.5 6.8 6.5 6.5 6.5 6.5 6.5 6.5 6.5 6.5 6.5 6.5 6.9 7.1 6.6 6.5 6.5 6.5 6.5 6.5 6.5 6.5 6.5 6.5 6.5 6.5 6.5 6.5 6.5 6.5
7.0 7.3 7.2 6.9 7.0 6.7 7.2 6.6 6.5 6.6 6.4 7.1 6.6 6.5 6.5 6.5 6.8 6.7 6.9 6.6 6.7 6.5 6.5 6.5 6.5 6.5 6.6 7.1 6.9 6.6 6.7 6.5 6.5 6.5 6.5 6.5 6.5 6.5 6.5 6.5 6.5 6.5 6.5 6.5
7.4 7.2 7.1 6.8 6.7 7.1 6.7 6.4 6.5 7.0 6.5 6.5 6.6 6.6 6.5 6.5 6.5 6.9 7.0 6.5 6.5 6.5 6.5 6.5 6.5 6.5 6.5 6.7 6.9 6.8 6.5 6.5 6.5 6.5 6.5 6.5 6.5 6.5 6.5 6.5 6.5 6.5 6.5 6.5
7.8 7.2 7.1 7.1 6.9 6.9 6.8 6.6 6.6 6.3 6.5 6.5 6.6 6.5 6.5 6.5 6.5 6.5 6.5 6.5 6.5 6.5 6.5 6.5 6.5 6.5 6.5 6.5 6.6 6.5 6.5 6.5 6.5 6.5 6.5 6.5 6.5 6.5 6.5 6.5 6.5 6.5 6.5 6.5
7.8 7.6 7.6 7.3 6.9 7.2 7.4 8.3 5.7 6.6 6.7 6.7 6.5 6.5 6.5 6.5 6.6 6.8 7.0 6.6 6.5 6.5 6.5 7.1 7.2 7.3 7.0 6.7 6.5 6.5 6.5 6.5 6.5 6.5 6.5 6.5 6.5 6.5 6.5 6.5 6.5 6.5 6.5 6.5
8.6 8.3 8.4 7.9 7.6 7.2 6.5 6.6 6.4 6.6 6.5 6.5 6.5 6.5 6.7 6.5 6.6 6.5 6.6 7.1 6.6 6.7 5.6 5.6 6.6 7.0 7.0 6.9 6.7 6.9 6.5 6.5 6.5 6.5 6.5 6.5 6.5 6.5 6.5 6.5 6.5 6.5 6.5 6.5
8.9 8.6 8.3 7.9 7.7 7.5 6.4 6.5 6.6 6.7 6.5 6.8 6.6 6.7 6.6 6.9 7.1 6.7 6.8 7.2 7.2 5.9 7.2 6.5 6.5 6.5 6.5 6.5 6.5 6.5 6.6 6.5 6.5 6.5 6.5 6.5 6.5 6.5 6.5 6.5 6.5 6.5 6.5 6.5
9.3 9.1 9.0 8.9 8.6 8.0 8.1 6.3 6.9 6.8 6.6 6.5 7.4 6.7 6.8 6.5 6.5 6.5 6.9 6.2 4.8 6.1 6.6 6.5 6.5 6.5 6.5 6.5 6.5 6.6 6.5 6.5 6.5 6.5 6.5 6.5 6.5 6.5 6.9 6.5 6.5 6.5 6.6 6.5
9.4 9.3 9.3 9.3 9.3 9.2 8.7 7.7 7.2 6.6 6.5 7.3 7.3 6.6 6.6 6.7 6.7 6.5 6.8 7.0 6.9 6.4 6.5 6.5 6.5 6.5 6.5 6.5 6.5 6.5 6.5 6.5 6.5 6.5 6.5 6.5 6.5 6.6 7.0 6.5 6.5 6.8 7.0 6.9
9.4 9.3 9.3 9.3 9.3 9.3 8.9 7.6 7.3 6.6 6.8 7.6 7.7 7.6 6.6 6.6 6.7 6.5 6.9 6.8 6.5 6.6 6.5 6.5 6.5 6.5 6.5 6.5 6.5 6.5 6.5 6.5 6.5 6.5 6.5 6.5 6.8 6.7 6.5 6.6 7.1 7.1 7.2 7.0
9.4 9.4 9.3 9.3 9.3 9.3 9.4 7.2 6.4 6.3 6.8 7.1 7.1 8.0 6.1 6.8 4.5 7.1 5.6 6.7 6.8 6.9 6.5 6.5 6.5 6.5 6.5 6.5 6.5 6.5 6.5 6.5 6.5 6.5 6.5 6.6 7.0 6.9 7.2 7.5 7.3 7.2 7.1 6.5
9.4 9.3 9.2 9.4 9.3 9.2 8.9 7.3 5.6 6.2 6.0 6.2 6.1 6.7 5.2 3.9 4.8 4.9 6.8 6.7 6.1 5.9 5.8 6.8 6.5 6.5 6.5 6.5 6.5 6.5 6.5 6.8 6.5 6.5 6.5 6.6 7.0 6.2 5.6 6.0 7.2 6.1 6.3 5.7
9.4 9.3 9.2 9.2 9.3 9.3 9.2 7.1 5.5 6.0 6.8 6.7 6.5 4.3 5.5 3.8 3.7 3.9 5.0 5.2 3.5 4.6 5.5 6.8 6.5 6.5 6.8 6.5 6.5 6.5 6.6 6.6 6.5 6.5 6.5 6.8 6.7 6.2 5.7 5.2 4.9 5.7 5.0 4.5
9.3 9.3 9.3 9.2 9.2 9.3 8.1 6.1 4.9 5.5 6.7 6.7 6.7 5.7 4.2 4.0 3.9 4.8 3.8 4.4 5.1 6.2 6.6 6.6 6.5 6.8 6.6 6.6 6.5 6.5 6.8 6.5 6.5 6.5 6.7 6.8 6.8 6.1 5.4 5.6 5.7 5.5 5.4 4.6
9.3 9.3 9.2 8.8 9.2 9.2 6.9 5.6 6.0 6.9 6.7 5.9 6.5 6.0 5.2 4.7 4.9 4.5 3.8 4.2 4.5 5.4 7.0 6.7 7.0 4.9 6.8 6.5 6.5 6.6 6.6 5.3 6.0 6.7 5.6 5.8 5.6 4.7 4.7 5.1 5.0 4.8 4.7 4.5
9.3 9.3 8.1 7.9 8.1 8.3 6.8 6.4 6.0 5.3 6.0 5.9 6.6 6.6 5.8 5.7 5.7 4.8 5.3 4.2 4.3 5.7 6.3 6.8 6.9 6.9 6.9 6.5 6.5 6.7 5.6 5.3 5.4 5.1 4.9 6.0 5.4 5.8 3.9 4.3 4.0 3.5 3.0 2.9
9.3 8.3 7.6 7.4 7.1 7.5 6.9 4.8 5.6 5.7 6.7 6.4 6.5 6.5 6.7 5.7 6.6 7.0 4.8 6.1 5.4 5.7 7.0 6.5 6.7 6.8 6.8 6.5 6.6 6.4 5.5 5.3 4.9 4.7 4.0 4.2 4.0 3.5 3.9 3.0 3.0 3.7 3.9 3.4
8.3 7.8 7.1 6.2 6.9 7.1 6.4 5.8 6.5 6.2 5.9 6.6 6.6 6.5 6.5 6.3 6.6 6.4 5.8 5.6 6.5 6.0 6.5 6.6 6.7 6.5 6.5 6.5 6.7 6.8 5.7 5.8 5.2 4.6 4.2 3.8 3.4 4.1 4.1 4.0 3.5 3.7 4.1 3.0
8.0 6.7 7.7 7.2 5.7 5.7 5.4 5.2 4.8 4.9 5.9 6.1 6.5 6.9 6.5 6.9 7.0 6.7 6.8 7.0 6.5 6.5 6.5 6.7 6.5 6.5 6.7 5.5 5.2 5.1 4.7 4.2 3.3 4.2 4.7 4.9 4.8 4.8 4.7 4.8 4.6 4.5 4.4 3.2
6.9 6.2 6.8 5.8 4.7 4.8 4.7 6.6 6.4 6.3 6.5 6.7 6.9 6.9 6.5 6.4 6.5 6.5 7.0 6.5 6.5 6.5 6.5 6.5 6.5 6.5 6.6 5.9 5.0 5.0 3.9 3.3 3.1 3.3 3.2 3.5 3.9 3.8 4.0 4.2 4.2 3.6 3.6 2.8
7.2 7.2 7.5 6.0 5.6 6.1 6.5 6.5 6.5 6.5 6.5 6.6 6.5 6.7 6.7 6.1 5.7 6.6 6.6 6.5 6.5 6.5 6.7 6.5 6.5 6.5 6.9 5.7 5.0 4.6 3.8 3.4 3.6 3.6 3.2 3.7 3.8 3.6 3.0 3.1 3.4 3.5 3.2 2.5
7.1 6.9 6.6 6.7 6.4 6.5 6.5 6.5 6.5 6.5 6.5 6.7 6.7 6.5 6.4 5.8 5.9 6.7 6.5 6.5 6.5 6.7 6.5 6.5 6.5 6.9 6.3 5.1 4.7 5.0 4.2 3.5 3.7 3.8 3.2 3.2 3.3 3.7 3.2 3.2 3.4 3.3 2.9 2.4
7.0 6.8 6.5 6.5 6.5 6.5 6.5 6.5 6.5 6.5 6.5 6.8 6.7 6.8 6.5 6.1 6.5 6.5 6.5 6.5 6.5 6.5 6.5 6.5 6.5 6.9 6.0 5.4 4.9 4.9 4.8 4.4 3.7 2.9 2.5 2.5 1.4 1.6 1.3 1.8 2.3 2.8 2.7 1.4
6.8 6.8 6.5 6.5 6.7 6.8 6.7 6.6 6.6 5.9 7.3 6.8 6.2 6.1 6.5 6.5 6.5 6.5 6.5 6.5 6.5 6.5 6.5 6.5 7.0 6.3 5.7 5.5 5.2 4.9 4.8 4.6 4.1 3.5 3.0 1.8 1.2 1.5 1.8 1.4 1.7 2.3 1.8 1.7
6.4 6.6 6.6 6.8 6.5 6.6 6.8 6.6 6.6 5.7 7.0 5.8 5.9 6.5 6.5 6.5 6.5 6.5 6.5 6.5 6.5 6.5 6.5 7.1 6.8 6.2 6.0 5.8 5.2 4.6 4.4 4.3 4.0 3.6 3.2 2.9 2.5 2.5 2.2 2.0 1.9 1.8 1.8 1.6
6.6 6.6 6.8 7.0 6.9 6.7 6.9 6.7 6.3 5.7 6.3 6.5 6.5 6.5 6.5 6.5 6.5 6.5 6.5 6.5 6.5 6.9 6.9 6.2 6.2 6.3 5.8 5.1 4.6 4.2 4.1 4.2 3.7 3.5 2.6 2.0 2.1 1.9 2.1 2.2 1.5 1.1 1.2 1.6
Wind_Speed
7 6 7 7 7 8 13 2 4 6 15 4 5 11 7 6 5 5 6 2 7 7 7 5 6 7 6 5 5 4 5 3 7 18 22 8 8 7 6 5 6 9 9 14
8 4 6 5 5 21 4 2 1 4 7 6 11 6 7 5 7 7 9 9 9 6 7 6 9 5 3 8 6 4 5 3 7 12 3 3 5 7 11 9 5 15 10 11
6 9 8 4 4 20 8 3 2 3 5 5 7 14 14 8 9 10 6 4 5 5 7 10 3 6 3 5 7 5 3 5 11 11 19 17 23 23 18 14 6 14 15 27
9 7 5 6 1 2 7 3 4 4 4 10 10 8 9 16 11 10 13 6 16 11 8 6 8 9 8 7 4 4 5 8 11 18 22 22 22 22 21 15 18 10 22 22
10 12 6 5 6 3 3 2 4 3 1 3 14 17 12 18 14 9 8 14 16 18 15 13 8 7 5 5 4 6 4 4 5 17 12 5 15 19 18 16 15 17 19 21
11 13 10 9 6 7 4 3 1 2 9 19 8 7 18 18 16 13 18 18 15 16 24 17 11 6 2 3 5 7 4 2 3 7 9 17 7 3 7 10 8 9 10 16
13 13 12 11 10 8 2 2 1 4 13 12 16 20 20 24 21 23 6 9 17 3 6 6 2 1 5 6 9 8 4 4 2 6 12 3 2 10 7 8 13 9 13 14
13 13 13 13 13 13 4 3 4 4 11 17 24 27 26 24 23 22 16 8 4 8 5 3 4 3 3 3 1 8 7 5 3 4 5 10 2 1 4 4 5 3 10 13
13 13 14 15 15 15 8 5 6 5 7 22 26 13 17 15 16 18 15 3 2 3 4 4 6 6 3 5 5 4 7 5 4 2 4 3 2 1 0 2 4 3 7 10
17 16 17 17 18 19 12 6 10 5 4 8 14 7 13 8 6 4 5 13 6 3 6 7 5 5 2 6 8 7 5 4 10 8 6 8 9 5 3 4 5 10 8 7
20 19 19 20 21 22 13 8 15 9 8 13 15 15 9 5 5 6 6 9 6 4 8 6 5 6 6 4 5 7 8 9 5 5 6 5 3 2 3 5 8 8 7 4
21 23 21 22 22 24 23 8 12 15 10 4 8 17 6 18 21 10 4 4 9 8 7 5 3 3 4 5 4 2 6 5 4 8 5 1 2 6 12 11 10 8 5 4
23 24 22 24 23 27 20 8 8 3 2 2 3 9 6 1 6 9 5 5 4 4 1 4 2 4 4 6 5 5 5 5 3 1 3 5 3 3 3 6 7 7 3 3
24 26 24 25 25 27 23 6 6 6 2 3 3 1 4 5 6 7 4 3 3 4 1 2 3 2 3 2 2 3 1 8 6 5 10 6 2 3 5 7 4 5 2 2
24 26 26 27 27 29 19 9 9 11 4 2 3 4 2 2 3 7 5 8 5 2 3 2 2 2 3 2 1 4 6 6 6 4 2 1 2 3 7 6 5 4 3 1
25 27 28 29 28 28 4 4 5 13 4 3 3 2 3 2 5 6 6 3 2 1 2 2 2 1 2 3 3 4 7 4 4 1 2 3 8 6 3 4 5 3 3 2
25 27 31 31 28 12 4 4 4 6 0 3 2 3 1 5 3 2 2 2 2 1 2 1 2 2 2 2 4 2 5 7 5 4 2 3 2 1 5 3 2 1 1 0
26 29 34 33 35 23 10 10 30 22 2 3 4 3 3 4 3 3 0 2 1 2 2 2 2 2 1 4 8 3 4 3 4 5 2 3 5 7 5 2 2 3 3 3
26 31 37 14 3 3 3 19 12 3 2 4 3 7 4 5 2 2 2 1 2 1 2 3 4 3 5 6 4 3 5 3 0 4 7 8 7 8 6 4 4 5 5 5
26 10 3 3 1 15 14 4 2 2 1 2 2 3 4 4 3 2 4 1 3 3 3 3 4 4 7 3 2 1 2 3 1 3 5 1 2 2 3 4 5 6 5 6
2 2 3 4 12 2 1 3 3 3 4 3 3 2 6 2 4 4 2 4 4 4 4 5 4 4 3 2 1 1 2 4 6 7 8 8 9 9 7 8 6 6 7 7
4 5 8 3 2 2 4 3 3 4 5 4 6 5 4 3 2 3 2 3 2 3 6 4 3 2 2 1 1 2 3 4 5 5 7 7 8 8 8 7 8 7 6 5
2 3 3 3 3 4 4 4 3 4 4 5 5 6 3 3 2 3 3 4 4 7 4 4 3 3 1 3 2 2 2 2 3 3 3 5 5 3 3 5 5 4 5 5
3 3 5 4 3 3 2 3 1 1 3 10 7 4 3 3 4 3 4 3 5 4 4 5 2 1 1 1 1 1 2 2 2 3 3 3 3 2 2 2 1 4 5 6
3 3 4 3 2 3 4 3 2 1 6 9 4 3 2 2 3 2 4 5 5 5 4 2 2 2 2 2 1 2 2 3 3 3 3 4 4 3 4 4 3 2 4 5
3 4 3 3 3 3 2 2 1 1 6 3 2 3 3 2 4 4 5 8 6 4 4 5 5 5 4 4 4 4 4 5 4 4 3 4 6 5 4 5 5 4 4 4
3 2 1 3 5 4 3 3 1 1 5 3 3 4 3 4 3 4 2 2 3 8 7 5 6 7 7 6 6 5 6 7 6 6 6 6 5 4 5 7 5 4 4 3
Wind_Direction
293 316 317 311 288 204 159 153 214 159 163 177 213 225 201 179 222 205 231 240 231 209 193 225 231 236 231 181 177 225 210 280 286 291 294 288 248 258 310 277 306 284 283 293
279 283 316 335 291 166 132 207 280 179 186 220 217 225 223 238 194 198 199 209 217 195 200 233 218 215 248 204 206 238 171 221 306 311 167 156 253 277 289 275 267 277 286 285
309 272 281 265 314 191 183 146 227 182 216 239 246 234 225 228 214 242 205 203 156 171 213 228 260 231 256 194 213 202 195 253 241 264 284 301 295 293 289 283 274 291 277 287
358 333 285 258 313 249 203 195 206 205 224 226 236 242 260 220 223 215 217 231 215 196 220 217 232 238 259 240 226 218 230 262 265 268 278 284 282 282 290 275 253 269 282 307
7 7 320 313 272 265 223 243 192 197 303 299 227 220 234 241 226 208 214 235 202 210 224 216 212 190 216 239 156 194 210 273 297 292 284 265 280 285 276 271 273 263 278 290
2 5 355 353 286 283 222 229 83 244 259 240 233 226 234 239 218 225 238 219 224 215 226 225 251 222 211 241 197 201 218 254 326 274 313 306 265 240 292 290 276 281 306 322
333 337 338 338 341 322 308 223 146 221 257 242 239 240 230 233 227 234 227 227 218 237 125 109 123 191 238 227 227 227 211 190 205 288 314 273 43 306 261 263 286 282 292 323
324 325 317 314 314 312 290 259 248 240 246 244 247 236 236 235 226 236 242 230 234 154 158 166 209 205 229 185 95 213 222 207 245 269 287 292 256 187 329 333 289 339 306 336
315 316 315 312 310 306 292 274 264 267 260 244 233 216 226 231 215 219 225 242 205 199 206 191 215 217 190 179 151 59 173 218 220 232 275 268 24 125 308 181 254 340 327 344
308 308 315 317 314 304 291 278 252 248 243 229 189 196 203 172 165 231 218 197 204 191 194 200 195 221 182 188 187 167 154 177 220 235 263 277 267 282 151 288 351 337 333 347
308 309 312 314 314 305 301 275 253 250 250 234 211 194 169 158 174 190 147 168 201 182 206 203 183 213 202 185 152 175 173 166 191 195 227 281 181 173 267 348 316 305 321 342
308 306 306 307 311 308 305 285 273 261 218 257 191 201 201 198 188 186 206 275 164 186 191 205 152 182 173 187 205 206 204 202 172 212 225 57 186 280 298 293 279 291 298 328
303 305 303 306 313 306 308 294 289 231 136 190 158 199 171 117 210 140 176 224 219 202 287 152 158 199 167 177 219 184 219 184 220 251 203 236 219 295 293 301 265 290 300 322
299 305 306 305 308 303 302 280 269 269 210 216 179 96 160 153 209 141 175 245 127 121 174 142 164 198 212 183 105 226 137 160 196 250 278 275 188 212 330 325 265 268 312 10
296 297 303 302 305 305 307 272 241 227 227 165 148 120 327 317 175 147 157 167 144 171 146 168 176 118 154 85 183 228 188 189 191 235 152 250 267 300 329 307 294 273 252 179
295 296 294 298 303 307 326 298 191 187 186 106 179 67 151 134 134 124 127 104 103 111 154 146 128 36 207 185 226 242 196 218 248 206 150 259 283 307 6 307 322 275 259 259
295 297 292 294 296 295 243 243 305 333 253 126 142 129 110 115 102 64 103 62 82 32 119 156 131 146 208 210 226 240 201 217 229 246 225 252 192 209 329 315 320 358 6 335
297 299 296 296 293 286 258 241 244 251 153 158 166 122 132 189 144 129 352 105 92 52 118 149 155 138 181 248 235 223 163 197 246 220 197 285 300 293 283 209 205 216 214 196
300 301 301 294 221 221 249 298 235 177 151 166 162 149 151 165 105 105 112 156 153 62 195 204 177 169 221 227 234 203 185 207 181 285 280 275 263 278 269 242 215 234 216 195
307 301 278 273 39 323 314 18 65 94 242 229 125 124 132 141 141 123 123 170 150 174 195 132 216 245 255 212 194 173 230 258 250 289 290 207 267 286 310 258 258 242 231 193
314 289 258 312 312 294 239 214 181 153 174 161 126 135 128 188 140 135 220 156 169 183 169 197 211 255 216 102 234 183 263 253 247 247 270 274 268 269 269 270 276 251 225 207
235 279 290 271 285 255 248 204 151 192 175 138 143 140 114 133 121 120 168 121 133 204 145 187 239 237 121 8 347 318 285 274 273 255 267 283 271 260 247 254 262 248 219 183
268 233 241 224 223 244 236 203 154 152 153 158 159 130 123 132 144 101 144 140 175 133 178 222 234 144 26 348 325 299 323 327 300 330 330 299 296 309 231 257 256 237 185 172
245 254 260 224 233 259 337 322 353 110 144 148 139 116 126 122 155 157 122 108 145 187 218 234 162 184 330 318 296 311 6 2 21 13 358 355 1 345 348 323 241 170 170 162
250 235 242 243 331 262 262 272 266 278 159 147 114 86 113 135 123 103 117 161 202 212 219 130 141 140 147 104 85 64 55 44 40 18 23 31 35 47 59 34 51 100 124 144
243 243 285 310 279 312 304 274 187 225 148 102 79 113 129 137 135 149 194 158 209 175 124 120 123 110 106 104 90 72 59 57 51 39 34 56 50 45 61 63 59 78 108 122
273 292 319 300 272 286 308 321 340 283 171 145 154 141 153 111 126 173 210 195 118 122 119 115 114 106 97 89 78 66 61 62 53 49 45 54 54 66 60 61 38 59 72 100